Weather in Tabulga

Russia / Novosibirsk Oblast     54°54′17″N   76°20′24″E
temp.,
°C
wind,
m/s
gust,
m/s
humid.,
%
clouds,
%
prec.,
mm/h
press.,
hPa
HPBL,
m
27 february, sat
sat2701:00−29wsw349886 0.0 103460
04:00−29sw3598100 0.0 103480
07:00−32sw339875 0.0 103524
10:00−31sw339744 0.0 103542
13:00−26sw349234 0.0 1036234
16:00−24ssw349395 0.0 1036301
19:00−28s339769 0.0 103535
22:00−30s34970 0.0 103546
28 february, sun
sun2801:00−30s349914 0.0 103446
04:00−30sse44998 0.0 103372
07:00−29se479934 0.0 103195
10:00−25se5994100 0.0 1029241
13:00−21se6993100 0.0 1026271
16:00−18ese6992100 0.0 1024324
19:00−17ese6119498 0.1 1020396
22:00−15ese61194100 0.1 1017336
1 march, mon
mon101:00−12e71295100 0.7 1012369
04:00−10e71394100 1.8 1008395
07:00−8ene61294100 2.8 1005364
10:00−8ene5995100 1.3 1004282
13:00−6ne5696100 3.0 1004212
16:00−6nne5796100 1.2 1005267
19:00−11nnw5894100 1.8 1008345
22:00−15nw479586 0.1 1011192
2 march, tue
tue201:00−18nw349885 0.1 101361
04:00−20nw339981 0.0 101628
07:00−21wnw229984 0.0 101720
10:00−19w229793 0.1 101791
13:00−16sw229192 0.1 1018302
16:00−14ssw2389100 0.0 1017387
19:00−15s2296100 0.1 1016150
22:00−17sse129792 0.1 101620
3 march, wed
wed301:00−17sse119793 0.2 101520
04:00−17n019798 0.2 101520
07:00−18nw119799 0.4 101620
10:00−17wnw129780 0.1 101650
13:00−14wsw228974 0.1 1018314
16:00−13sw3490100 0.0 1019410
19:00−16ssw349594 0.0 102045
22:00−19s349869 0.0 102056